BEIDOU-3 M4 (C28)

Last updated on Aug. 15, 2020, 5:35 a.m. UTC

1 43108U 18003B   20227.36576159 -.00000071  00000-0  00000-0 0  9992
2 43108  55.3644  15.6077 0002995 220.0335  38.5905  1.86232674 17637
UTC
Height (km)
Latitude
Longitude
Inclination
Orbital Period
UTC large
Height (km)
Speed (km/s)
/
Latitude / Longitude
Inclination (degrees)
Orbital Period (minutes)
Azimuth
Elevation
Range (km)
Doppler Factor
iOS Compass Heading
iOS Angle

Next 30 passes for location: Hong Kong

Rise time Rise Azimuth (degrees) Set time Set Azimuth (degrees) Duration Max altitude (degrees)

No matching passes for this satellites